Hamilton Island, Australia

7:59 AM AEST on July 25, 2017 (GMT +1000)
Hamilton Island

Weather History for YBHM - February, 2013

Change the Weather History Date:

Saturday, February 23, 2013

  Actual Average Record
Temperature  
Mean Temperature 80 °F -  
Max Temperature 84 °F - - ()
Min Temperature 77 °F - - ()
Cooling Degree Days 16    
Growing Degree Days 30 (Base 50)    
Moisture  
Dew Point 77 °F    
Average Humidity 88    
Maximum Humidity 100    
Minimum Humidity 74    
Precipitation  
Precipitation 0.67 in - - ()
Sea Level Pressure  
Sea Level Pressure 29.76 in    
Wind  
Wind Speed 4 mph ()    
Max Wind Speed 12 mph    
Max Gust Speed -    
T = Trace of Precipitation, MM = Missing Value Source: Averaged Metar Reports

Daily Weather History Graph

Daily Weather History Graph

Search for Another Location

Airport or City:

Trip Planner

Search our weather history database for the weather conditions in past years. The results will help you decide how hot, cold, wet, or windy it might be!

Date:

Astronomy

Feb. 23, 2013 Rise Set
Actual Time 5:59 AM AEST 6:35 PM AEST
Civil Twilight 5:36 AM AEST 6:58 PM AEST
Nautical Twilight 5:10 AM AEST 7:24 PM AEST
Astronomical Twilight 4:43 AM AEST 7:51 PM AEST
Moon 4:35 PM AEST (2/23) 3:22 AM AEST (2/23)
Length of Visible Light 13h 21m
Length of Day
12h 36m
Waxing Gibbous, 92% of the Moon is Illuminated
Feb 23
Waxing Gibbous
Feb 26
Full
Mar 5
Last Quarter
Mar 12
New
Mar 20
First Quarter

Hourly Weather History & Observations

Time (AEST) Temp. Heat Index Dew Point Humidity Pressure Visibility Wind Dir Wind Speed Gust Speed Precip Events Conditions
12:00 AM 79 °F - 76 °F 87% 29.75 in - NNW 2.3 mph - -  
12:00 AM 78.8 °F - 75.2 °F 89% 29.74 in - NNW 2.3 mph - N/A   Unknown
12:30 AM 78.8 °F - 77.0 °F 94% 29.74 in - NNW 4.6 mph - N/A   Unknown
1:00 AM 78.8 °F - 77.0 °F 94% 29.74 in - WNW 3.5 mph - N/A   Unknown
1:30 AM 78.8 °F - 77.0 °F 94% 29.74 in - NW 4.6 mph - N/A   Unknown
2:00 AM 78.8 °F - 77.0 °F 94% 29.74 in - NNW 9.2 mph - N/A   Unknown
2:30 AM 78.8 °F - 77.0 °F 94% 29.71 in - North 5.8 mph - N/A   Unknown
3:00 AM 78 °F - 76 °F 94% 29.73 in - NNE 4.6 mph - -  
3:00 AM 78.8 °F - 77.0 °F 94% 29.71 in - NNE 4.6 mph - N/A   Unknown
3:30 AM 78.8 °F - 77.0 °F 94% 29.74 in - North 5.8 mph - N/A   Unknown
4:00 AM 78.8 °F - 75.2 °F 89% 29.74 in - North 1.2 mph - N/A   Unknown
4:30 AM 78.8 °F - 77.0 °F 94% 29.74 in - Calm Calm - N/A   Unknown
5:00 AM 78.8 °F - 77.0 °F 94% 29.74 in - NNE 4.6 mph - N/A   Unknown
5:30 AM 78.8 °F - 77.0 °F 94% 29.74 in - NNW 5.8 mph - N/A   Unknown
6:00 AM 79 °F - 77 °F 93% 29.75 in - WNW 4.6 mph - -  
6:00 AM 78.8 °F - 77.0 °F 94% 29.74 in - WNW 4.6 mph - N/A   Unknown
6:30 AM 78.8 °F - 77.0 °F 94% 29.77 in - Calm Calm - N/A   Unknown
7:00 AM 78.8 °F - 78.8 °F 100% 29.77 in - Calm Calm - N/A   Unknown
7:30 AM 80.6 °F 88.1 °F 78.8 °F 94% 29.80 in - Calm Calm - N/A   Unknown
8:00 AM 80.6 °F 88.1 °F 78.8 °F 94% 29.80 in - North 1.2 mph - N/A   Unknown
8:30 AM 80.6 °F 87.1 °F 77.0 °F 89% 29.80 in - NNW 1.2 mph - N/A   Unknown
9:00 AM 82 °F - 78 °F 84% 29.81 in - NNW 4.6 mph - -  
9:00 AM 82.4 °F 92.4 °F 78.8 °F 89% 29.80 in - NNW 4.6 mph - N/A   Unknown
9:30 AM 82.4 °F 92.4 °F 78.8 °F 89% 29.83 in - WNW 5.8 mph - N/A   Unknown
10:00 AM 82.4 °F 92.4 °F 78.8 °F 89% 29.83 in - WNW 5.8 mph - N/A   Unknown
10:30 AM 82.4 °F 90.9 °F 77.0 °F 84% 29.80 in - WNW 5.8 mph - N/A   Unknown
11:00 AM 84.2 °F 96.1 °F 78.8 °F 84% 29.80 in - NNW 5.8 mph - N/A   Unknown
11:30 AM 84.2 °F 96.1 °F 78.8 °F 84% 29.80 in - NW 5.8 mph - N/A   Unknown
12:00 PM 84 °F - 79 °F 80% 29.80 in - WNW 5.8 mph - -  
12:00 PM 84.2 °F 96.1 °F 78.8 °F 84% 29.80 in - WNW 5.8 mph - N/A   Unknown
12:30 PM 82.4 °F 90.9 °F 77.0 °F 84% 29.77 in - SSE 9.2 mph - N/A   Unknown
1:00 PM 82.4 °F 92.4 °F 78.8 °F 89% 29.77 in - SE 6.9 mph - N/A   Unknown
1:30 PM 82.4 °F 90.9 °F 77.0 °F 84% 29.74 in - ESE 5.8 mph - N/A   Unknown
2:00 PM 82.4 °F 90.9 °F 77.0 °F 84% 29.74 in - East 6.9 mph - N/A   Unknown
2:30 PM 82.4 °F 92.4 °F 78.8 °F 89% 29.74 in - ESE 6.9 mph - N/A   Unknown
3:00 PM 83 °F - 78 °F 80% 29.73 in - East 3.5 mph - -  
3:00 PM 82.4 °F 90.9 °F 77.0 °F 84% 29.74 in - East 3.5 mph - N/A   Unknown
3:30 PM 84.2 °F 96.1 °F 78.8 °F 84% 29.71 in - WNW 2.3 mph - N/A   Unknown
4:00 PM 84.2 °F 94.1 °F 77.0 °F 79% 29.71 in - NNE 6.9 mph - N/A   Unknown
4:30 PM 82.4 °F 90.9 °F 77.0 °F 84% 29.68 in - NNE 11.5 mph - N/A   Unknown
5:00 PM 82.4 °F 90.9 °F 77.0 °F 84% 29.68 in - North 11.5 mph - N/A   Unknown
5:30 PM 82.4 °F 90.9 °F 77.0 °F 84% 29.71 in - NNE 6.9 mph - N/A   Unknown
6:00 PM 82 °F - 76 °F 78% 29.73 in - NNE 10.4 mph - -  
6:00 PM 82.4 °F 90.9 °F 77.0 °F 84% 29.74 in - NNE 10.4 mph - N/A   Unknown
6:30 PM 80.6 °F 87.1 °F 77.0 °F 89% 29.74 in - NNE 9.2 mph - N/A   Unknown
7:00 PM 80.6 °F 87.1 °F 77.0 °F 89% 29.74 in - NNE 8.1 mph - N/A   Unknown
7:30 PM 80.6 °F 87.1 °F 77.0 °F 89% 29.77 in - NNE 8.1 mph - N/A   Unknown
8:00 PM 80.6 °F 87.1 °F 77.0 °F 89% 29.77 in - NE 6.9 mph - N/A   Unknown
8:30 PM 80.6 °F 87.1 °F 77.0 °F 89% 29.77 in - NNE 8.1 mph - N/A   Unknown
9:00 PM 80 °F - 77 °F 89% 29.80 in - NE 4.6 mph - -  
9:00 PM 80.6 °F 87.1 °F 77.0 °F 89% 29.80 in - NE 4.6 mph - N/A   Unknown
9:30 PM 80.6 °F 87.1 °F 77.0 °F 89% 29.83 in - NE 5.8 mph - N/A   Unknown
10:00 PM 80.6 °F 87.1 °F 77.0 °F 89% 29.83 in - NNW 4.6 mph - N/A   Unknown
10:30 PM 80.6 °F 87.1 °F 77.0 °F 89% 29.83 in - NNE 5.8 mph - N/A   Unknown
11:00 PM 80.6 °F 87.1 °F 77.0 °F 89% 29.83 in - NNE 5.8 mph - N/A   Unknown
11:30 PM 78.8 °F - 69.8 °F 74% 29.80 in - NE 10.4 mph - N/A   Unknown